Weather in Depo

Russia / Vologda Oblast     60°54′57″N   36°50′31″E
temp.,
°C
wind,
m/s
gust,
m/s
humid.,
%
clouds,
%
prec.,
mm/h
press.,
hPa
HPBL,
m
22 january, sat
sat2200:00−8e2894100 0.0 1006231
03:00−8e3994100 0.1 1007363
06:00−9ene2795100 0.1 1009196
09:00−9e2796100 0.4 1011330
12:00−9e269424 0.2 1014291
15:00−10ese26956 0.2 1016137
18:00−16ese249832 0.0 101955
21:00−20ese2110031 0.0 102211
23 january, sun
sun2300:00−22ese2210060 0.0 102413
03:00−23ese2110077 0.0 102513
06:00−24se1110097 0.0 10279
09:00−23se2110098 0.0 102821
12:00−15s129972 0.0 102954
15:00−13sse119791 0.0 103025
18:00−17s219996 0.0 103120
21:00−18s2299100 0.0 103132
24 january, mon
mon2400:00−15sse249676 0.0 103253
03:00−12ssw3109172 0.0 1031226
06:00−10ssw3118771 0.0 1031319
09:00−9ssw3118999 0.0 1031348
12:00−7s4129092 0.0 1029399
15:00−6ssw4148799 0.0 1028489
18:00−6ssw51483100 0.0 1026507
21:00−7s5168041 0.0 1024474
25 january, tue
tue2500:00−7s618795 0.0 1022552
03:00−7s6187695 0.0 1019621
06:00−7s51681100 0.0 1017621
09:00−7s51494100 0.5 1015607
12:00−7s41195100 1.1 1014520
15:00−7s3895100 3.4 1014468
18:00−7s3795100 1.1 1014321
21:00−7sse2496100 1.6 1014183
26 january, wed
wed2600:00−8se129789 0.4 101561
03:00−12ese119978 0.4 101710
06:00−15ne119969 0.0 101810
09:00−18e1110088 0.1 10199
12:00−11ene119770 0.1 101960
15:00−10ene119872 0.1 101810
18:00−18e1110089 0.0 10199
21:00−18ese2110097 0.0 101825